Content
SEND FEEDBACK

Daily
Averages
Monthly
Summary
France

LILLE, FRANCE


Home > Europe > France
Elevation: 171 feet     Latitude: 50 34N     Longitude: 003 06E

WEATHER
 
SELECT A DAY
Number of Records: 269,585;   Date Range: 7/1/96 - 8/31/14
 
SHARE

PRINT THIS DATA

[ ← Previous Day ]
WEATHER ALMANAC - NOVEMBER 23, 2013
[ Next Day → ]
[ °C ]   °F
Weather ElementAverageHighLow
Temperature41.2 °F44.6 °F (12:30 pm)37 °F (10:00 pm)
Dewpoint34.4 °F36 °F (10:00 am)32 °F (3:00 pm)
Humidity76.1 %87 % (5:00 am)57 % (4:00 pm)
Barometer30.11 in30.21 in (10:00 pm)30.04 in (1:00 am)
Wind Speed9.9 mph13.8 mph (1:30 am)
Weather ElementAverage
Visibility8.4 mi
Wind DirectionENE (64.6 °)

Weather ElementTotal
Precipitation---
Heating Degree Days24.2 (Base 65)
Averaged from 52 records on November 23, 2013
WEATHER CONDITIONS BREAKOUT
WIND DIRECTION BREAKOUT
WEATHER BY HOUR - NOVEMBER 23, 2013
[ °C ]   °F
Local TimeTemperatureDewpointHumidityBarometerVisibilityWind DirectionWind SpeedGust SpeedPrecipitationEventsConditions
1:00 AM41.0 °F35.0 °F72 %30.04 in19.0 miNNE (30°)11.5 mphOvercast
1:00 AM41.0 °F35.6 °F81 %30.04 in6.2 miNNE (30°)11.5 mphOvercast
1:30 AM41.0 °F33.8 °F76 %30.04 in6.2 miNNE (20°)13.8 mphOvercast
2:00 AM41.0 °F33.8 °F76 %30.04 in6.2 miNNE (20°)12.7 mphOvercast
2:30 AM41.0 °F35.6 °F81 %30.04 in6.2 miNNE (20°)12.7 mphOvercast
3:00 AM41.0 °F35.6 °F81 %30.04 in6.2 miNNE (30°)12.7 mphOvercast
3:30 AM41.0 °F35.6 °F81 %30.04 in6.2 miNNE (30°)11.5 mphOvercast
4:00 AM40.0 °F35.0 °F78 %30.06 in19.0 miNNE (20°)10.4 mphClear
4:00 AM41.0 °F35.6 °F81 %30.04 in6.2 miNNE (20°)10.4 mphPartly Cloudy
5:00 AM39.2 °F35.6 °F87 %30.04 in6.2 miNNE (20°)11.5 mphPartly Cloudy
6:00 AM39.2 °F33.8 °F81 %30.06 inNorth (10°)8.1 mphClear
6:30 AM39.2 °F35.6 °F87 %30.06 inNorth (10°)6.9 mphClear
7:00 AM39.2 °F35.6 °F87 %30.06 in6.2 miNorth (10°)6.9 mphMostly Cloudy
7:00 AM39.0 °F35.0 °F81 %30.09 in16.0 miNorth (10°)6.9 mphPartly Cloudy
7:30 AM39.2 °F35.6 °F87 %30.06 in6.2 miNorth (10°)6.9 mphMostly Cloudy
8:00 AM39.2 °F35.6 °F87 %30.09 in6.2 miNorth (10°)8.1 mphMostly Cloudy
8:30 AM39.2 °F35.6 °F87 %30.09 in6.2 miNorth (10°)10.4 mphScattered Clouds
9:00 AM39.2 °F35.6 °F87 %30.09 in6.2 miNorth (360°)8.1 mphScattered Clouds
9:30 AM41.0 °F35.6 °F81 %30.09 in6.2 miNNE (20°)5.8 mphScattered Clouds
10:00 AM41.0 °F35.6 °F81 %30.12 in6.2 miNNE (20°)9.2 mphScattered Clouds
10:00 AM42.0 °F36.0 °F70 %30.13 in12.0 miNNE (20°)9.2 mphPartly Cloudy
10:30 AM42.8 °F35.6 °F76 %30.12 in6.2 miNNE (20°)10.4 mphScattered Clouds
11:00 AM42.8 °F35.6 °F76 %30.12 in6.2 miNNE (20°)10.4 mphMostly Cloudy
11:30 AM42.8 °F35.6 °F76 %30.12 in6.2 miNNE (20°)11.5 mphMostly Cloudy
12:00 PM42.8 °F33.8 °F70 %30.12 in6.2 miNNE (20°)12.7 mphMostly Cloudy
12:30 PM44.6 °F33.8 °F66 %30.12 in6.2 miNNE (20°)13.8 mphMostly Cloudy
1:00 PM44.6 °F33.8 °F66 %30.12 in6.2 miNE (40°)11.5 mphMostly Cloudy
1:00 PM44.0 °F34.0 °F58 %30.14 in25.0 miNE (40°)11.5 mphMostly Cloudy
1:30 PM44.6 °F33.8 °F66 %30.12 in6.2 miNNE (30°)12.7 mphMostly Cloudy
2:00 PM44.6 °F33.8 °F66 %30.12 in6.2 miNNE (30°)10.4 mphMostly Cloudy
2:30 PM44.6 °F33.8 °F66 %30.12 in6.2 miNNE (20°)12.7 mphMostly Cloudy
3:00 PM44.6 °F32.0 °F61 %30.12 in6.2 miNNE (30°)11.5 mphMostly Cloudy
3:30 PM44.6 °F33.8 °F66 %30.12 in6.2 miNNE (20°)12.7 mphMostly Cloudy
4:00 PM44.6 °F33.8 °F66 %30.12 in6.2 miNNE (20°)11.5 mphMostly Cloudy
4:00 PM44.0 °F34.0 °F57 %30.15 in25.0 miNNE (20°)11.5 mphMostly Cloudy
4:30 PM44.6 °F33.8 °F66 %30.12 in6.2 miNNE (20°)12.7 mphMostly Cloudy
5:00 PM42.8 °F33.8 °F70 %30.12 in6.2 miNNE (20°)12.7 mphMostly Cloudy
5:30 PM42.8 °F33.8 °F70 %30.15 in6.2 miNNE (20°)9.2 mphMostly Cloudy
6:00 PM42.8 °F33.8 °F70 %30.15 in6.2 miNNE (20°)8.1 mphMostly Cloudy
6:30 PM42.8 °F33.8 °F70 %30.15 in6.2 miNorth (10°)8.1 mphMostly Cloudy
7:00 PM42.0 °F34.0 °F63 %30.18 in19.0 miNorth9.2 mphScattered Clouds
7:00 PM42.8 °F33.8 °F70 %30.15 in6.2 miNorth (360°)9.2 mphPartly Cloudy
7:30 PM41.0 °F33.8 °F76 %30.15 in6.2 miNorth (10°)5.8 mphMostly Cloudy
8:00 PM39.2 °F33.8 °F81 %30.18 inNorth (10°)6.9 mphClear
8:30 PM39.2 °F33.8 °F81 %30.18 inNNE (20°)6.9 mphClear
9:00 PM39.2 °F33.8 °F81 %30.18 inNorth (360°)8.1 mphClear
9:30 PM37.4 °F33.8 °F87 %30.18 inNorth (360°)6.9 mphClear
10:00 PM37.0 °F34.0 °F83 %30.21 in9.0 miNorth8.1 mphScattered Clouds
10:00 PM37.4 °F33.8 °F87 %30.18 inNorth (350°)9.2 mphClear
10:30 PM37.4 °F33.8 °F87 %30.18 inNorth (350°)8.1 mphClear
11:00 PM37.4 °F33.8 °F87 %30.18 inNorth (360°)6.9 mphClear
11:30 PM37.4 °F32.0 °F81 %30.21 inNorth (10°)6.9 mphClear
Hourly data recorded from LFQQ, located miles away from Lille, France







STORIES FROM OUR PARTNERS